Regional Weather Roundup
Issued by NWS

Home | Current Version | Previous Version | Graphics & Text | Print | Product List | Glossary On
Versions: 1 2 3 4 5 6 7 8 9 10 11 12 13 14 15 16 17 18 19 20 21 22 23 24 25 26 27 28 29 30 31 32 33 34 35 36 37 38 39 40 41 42 43 44 45 46 47 48 49 50
000
ASUS43 KMPX 061810
RWRMN
WEATHER ROUNDUP FOR MINNESOTA
NATIONAL WEATHER SERVICE TWIN CITIES/CHANHASSEN MN
1200 PM CST TUE DEC 06 2016


NOTE: "FAIR" INDICATES FEW OR NO CLOUDS BELOW 12,000 FEET WITH NO
SIGNIFICANT WEATHER AND/OR OBSTRUCTIONS TO VISIBILITY. N/A MEANS
CURRENT SKY AND/OR WEATHER CONDITIONS ARE NOT AVAILABLE.

MNZ060>063-068>070-061900-
   Twin Cities Metro

CITY           SKY/WX    TMP DP  RH WIND       PRES   REMARKS
TWIN CITIES    FLURRIES  22  10  60 SW16G29   29.72F WCI   8
6HR MIN TEMP:  21; 6HR MAX TEMP:  27; 6HR PCP: TRACE;

ST PAUL        CLOUDY    22  12  65 SW15G24   29.74F WCI   9
CRYSTAL        FLURRIES  22  10  60 SW21G31   29.69F WCI   6
BLAINE         FLURRIES  25  12  58 SW18G32   29.68F WCI  11
LAKEVILLE      CLOUDY    19  12  73 W13G21    29.73F WCI   7
EDEN PRAIRIE   CLOUDY    23  11  60 W22G32    29.71F WCI   8
6HR MIN TEMP:  20; 6HR MAX TEMP:  26; 6HR PCP: TRACE;

SOUTH ST PAUL  FLURRIES  23  12  63 W15G25    29.73S WCI  10
LAKE ELMO      FLURRIES  23  14  68 SW23G29   29.72S WCI   7
$$
MNZ001>005-007-008-013>017-022>024-027-028-061900-
   Northwest Minnesota

CITY           SKY/WX    TMP DP  RH WIND       PRES   REMARKS
BEMIDJI        CLOUDY    22  18  84 S15G26    29.31F WCI   9
HALLOCK        LGT SNOW  25  21  86 NE7       29.38R VSB 1   WCI  17
ROSEAU         CLOUDY    25  19  80 E8        29.36F WCI  16
WARROAD        CLOUDY    21  18  86 SE7       29.38S WCI  13
THIEF RVR FALL LGT SNOW  24  21  88 NE10      29.28R FOG     WCI  14
CROOKSTON      LGT SNOW  25  23  93 NW22      29.30R WCI  10
FOSSTON        LGT SNOW  27  25  93 SW15      29.25F WCI  15
DETROIT LAKES  LGT SNOW  23  19  86 W23G33    29.39F VSB 3/4 WCI   7
MOORHEAD       RAIN      19  18  93 W39G51    29.46R VSB 1/2 WCI  -2
PARK RAPIDS    LGT SNOW  23  17  78 SW20      29.38S VSB 1   WCI   8
$$
MNZ006-009>011-018-025>026-061900-
   North Central Minnesota

CITY           SKY/WX    TMP DP  RH WIND       PRES   REMARKS
BAUDETTE       LGT SNOW  22  17  81 SE8       29.37F WCI  12
FLAG ISLAND    CLOUDY    25  19  80 SE13      29.38S WCI  13
INTL FALLS     CLOUDY    24  17  74 S6        29.41F HAZE    WCI  17
6HR MIN TEMP:  24; 6HR MAX TEMP:  32; 6HR PCP: TRACE;

WASKISH        LGT SNOW  21  18  86 SE9G17    29.36F WCI  11
BIG FORK       LGT SNOW  21  16  79 S14G21    29.41F WCI   8
LONGVILLE      LGT SNOW  21  16  79 S20G28    29.42F WCI   6
GRAND RAPIDS   LGT SNOW  20  14  77 S18G25    29.45F WCI   5
CRANE LAKE     FLURRIES  21  18  86 S6        29.47F WCI  14
COOK           FLURRIES  21  16  79 S12G23    29.45F WCI   9
$$
MNZ012-019>021-037-061900-
   Northeast Minnesota

CITY           SKY/WX    TMP DP  RH WIND       PRES   REMARKS
DULUTH         FLURRIES  22  16  78 SW22      29.51F WCI   6
6HR MIN TEMP:  22; 6HR MAX TEMP:  29; 6HR PCP: TRACE;

ELY            CLOUDY    23  16  74 SW12G20   29.47R WCI  12
HIBBING        FLURRIES  20  13  74 S10G24    29.46F WCI   9
EVELETH        MIX PCPN  22  16  75 S16G23    29.48F WCI   9
DULUTH HARBOR  FLURRIES  27  18  69 SW22G32   29.58S WCI  12
TWO HARBORS    CLOUDY    28  19  69 SW18G25   29.51F WCI  16
SILVER BAY     CLOUDY    27  21  80 SW13G18   29.51S WCI  16
GRAND MARAIS     N/A     34  33  96 SW25      29.53F WCI  21
$$
MNZ029>031-032-039>041-046>048-054>057-064-061900-
   West Central Minnesota

CITY           SKY/WX    TMP DP  RH WIND       PRES   REMARKS
FERGUS FALLS   LGT SNOW  19  18  93 W30G40    29.58R VSB 3/4 WCI   0
WHEATON        LGT SNOW  21  18  86 W24G35    29.65R WCI   4
MORRIS         LGT SNOW  19  16  86 W26G39    29.62S WCI   1
ALEXANDRIA     SNOW      20  16  84 W22G37    29.56R VSB 1/2 WCI   3
ELBOW LAKE     SNOW      19  17  93 W32G41    29.58R VSB 1/2 WCI  -1
WADENA         LGT SNOW  19  18  93 SW21G29   29.45S WCI   3
GLENWOOD       LGT SNOW  19  18  93 W23G35    29.59S WCI   2
APPLETON       CLOUDY    23  12  63 W33G43    29.67S WCI   5
BENSON         FLURRIES  21  12  68 NW31      29.66R WCI   3
ORTONVILLE     CLOUDY    19  10  68 W30G38    29.68R WCI   0
MADISON        CLOUDY    23  12  63 W32G40    29.73S WCI   5
WILLMAR        CLOUDY    21  16  79 W25G36    29.68F WCI   4
$$
MNZ033>034-036-042>043-049>051-058-059-061900-
   Central Minnesota

CITY           SKY/WX    TMP DP  RH WIND       PRES   REMARKS
ST CLOUD       LGT SNOW  21  14  74 SW22G31   29.62F WCI   5
6HR MIN TEMP:  19; 6HR MAX TEMP:  22; 6HR PCP: TRACE;

PAYNESVILLE    LGT SNOW  21  15  79 SW22G29   29.65S WCI   5
AITKIN         FLURRIES  23  12  63 S17G28    29.48F WCI   9
PINE RIVER     LGT SNOW  21  18  86 S13G23    29.48F WCI   9
BRAINERD       LGT SNOW  21  16  81 S17G25    29.49F WCI   7
STAPLES        LGT SNOW  21  18  86 SW21G26   29.47F WCI   6
LONG PRAIRIE   LGT SNOW  21  18  86 S21G28    29.55S WCI   6
LITTLE FALLS   LGT SNOW  23  18  80 SW16G22   29.56F WCI  10
LITCHFIELD     FLURRIES  21  16  79 W15G26    29.68F WCI   8
BUFFALO        LGT SNOW  21  15  75 SW16G29   29.69F WCI   7
MAPLE LAKE     LGT SNOW  22  17  78 SW12G22   29.67F WCI  11
HUTCHINSON     FLURRIES  21  15  75 SW22G30   29.72S WCI   5
$$
MNZ037-044-045-052-053-061900-
   East Central Minnesota

CITY           SKY/WX    TMP DP  RH WIND       PRES   REMARKS
PRINCETON      FLURRIES  23  14  68 SW14G24   29.63F WCI  11
MORA           PTSUNNY   21  14  73 SW18G26   29.61F WCI   6
CAMBRIDGE      FLURRIES  25  12  58 SW15G23   29.62F WCI  12
RUSH CITY      CLOUDY    21  12  68 SW15G25   29.64F WCI   8
MOOSE LAKE     FLURRIES  21  12  68 S13G23    29.54F WCI   9
HINCKLEY       FLURRIES  23  16  74 SW16G22   29.61F WCI  10
CLOQUET        FLURRIES  21  12  68 S18G26    29.52F WCI   6
MCGREGOR       CLOUDY    23  18  80 S16G26    29.51F WCI  10
$$
MNZ071>073-080-081-089-090-097-098-061900-
   Southwest Minnesota

CITY           SKY/WX    TMP DP  RH WIND       PRES   REMARKS
MONTEVIDEO     CLOUDY    23  12  63 NW22G36   29.73S WCI   8
GRANITE FALLS  MOSUNNY   23  15  70 W28G43    29.76S WCI   6
CANBY          FLURRIES  20  11  67 NW33G40   29.77R WCI   1
MARSHALL       FLURRIES  21  11  65 W38G48    29.75S WCI   1
REDWOOD FALLS  CLOUDY    22   9  57 W30G41    29.75S WCI   4
OLIVIA         MOSUNNY   23  14  68 W30G36    29.71S WCI   5
PIPESTONE      FLURRIES  18  10  73 W31G38    29.80F WCI  -2
WINDOM         SUNNY     21  10  63 W33G43    29.76F WCI   2
WORTHINGTON    FLURRIES  19  11  70 W33G40    29.80F WCI  -1
JACKSON        CLOUDY    21  10  63 W29G39    29.80S WCI   3
TRACY          MOSUNNY   22  12  66 W18G32    29.77R WCI   7
SLAYTON        PTSUNNY   19  10  70 W35G45    29.77F WCI  -2
$$
MNZ065>067-074>077-082>085-091>093-061900-
   South Central Minnesota

CITY           SKY/WX    TMP DP  RH WIND       PRES   REMARKS
MANKATO        FLURRIES  21  12  68 W26       29.77S WCI   4
NEW ULM        CLOUDY    21  12  68 W29G35    29.77F WCI   3
ST JAMES       CLOUDY    21  12  68 W26G36    29.80S WCI   4
FAIRMONT       FLURRIES  23  14  68 W29G37    29.80F WCI   6
GLENCOE        LGT SNOW  22  17  82 SW16G25   29.72F WCI   8
FARIBAULT      FLURRIES  21  12  68 SW18G24   29.76F WCI   6
OWATONNA       CLOUDY    21  12  68 W24G33    29.77R WCI   4
WASECA         CLOUDY    23  16  74 W26G36    29.79S WCI   6
ALBERT LEA     CLOUDY    27  18  69 W12G21    29.78F WCI  16
$$
MNZ078>079-086>088-094>096-061900-
   Southeast Minnesota

CITY           SKY/WX    TMP DP  RH WIND       PRES   REMARKS
ROCHESTER      CLOUDY    21  15  78 W23G29    29.76S WCI   5
6HR MIN TEMP:  19; 6HR MAX TEMP:  30; 6HR PCP: TRACE;

RED WING       CLOUDY    25  14  63 W20       29.74F WCI  11
STANTON        FLURRIES  23  14  66 W14G29    29.74F WCI  11
DODGE CENTER     N/A     21  16  79 W22G33    29.74F WCI   5
WINONA         PTSUNNY   25  18  74 W8G18     29.80R WCI  16
AUSTIN         CLOUDY    21  16  79 W12G23    29.78F WCI   9
PRESTON        CLOUDY    21  14  76 W24       29.79R WCI   4
$$
ABBREVIATIONS USED IN REMARKS
   TC - TEMPERATURES IN CELSIUS
  WCI - WIND CHILL INDEX
   HX - HEAT INDEX
  VSB - VISIBILITY
$$



USA.gov is the U.S. government's official web portal to all federal, state and local government web resources and services.